Погода в Бейкер-Лейк

Канада     64°19′01″N   96°01′20″W
темп.,
°C
ветер,
м/с
пор.,
м/с
влажн.,
%
обл.,
%
осадки,
мм/ч
давл.,
гПа
погр.,
м
16 апреля, пт
пт1601:00−15сз229799 0.0 102810
04:00−17сз229990 0.0 10279
07:00−16зсз2297100 0.0 102646
10:00−11зсз1191100 0.1 1024155
13:00−9с1185100 0.3 1022296
16:00−6с228699 0.4 1021471
19:00−7с339081 0.4 102163
22:00−12с449671 0.0 102236
17 апреля, сб
сб1701:00−12ссз5109387 0.1 1022147
04:00−17ссз589413 0.0 102388
07:00−18ссз58845 0.0 1024106
10:00−16ссз611825 0.0 1024289
13:00−14ссз79805 0.0 1025353
16:00−12ссз710785 0.0 1025421
19:00−14сз597912 0.0 1025143
22:00−19сз44925 0.0 102632
18 апреля, вс
вс1801:00−21зсз46925 0.0 102544
04:00−20зсз58915 0.0 102582
07:00−18сз814835 0.0 1025236
10:00−15сз7148313 0.0 1024444
13:00−13сз812797 0.0 1024531
16:00−12сз712805 0.0 1024561
19:00−13сз58845 0.0 1023121
22:00−20сз331007 0.0 102418
19 апреля, пн
пн1901:00−22ссз33975 0.0 102424
04:00−23ссз43975 0.0 102528
07:00−24сз339935 0.0 102626
10:00−17ссз4688100 0.0 1026197
13:00−12ссз467861 0.0 1025370
16:00−10сз4682100 0.0 1024537
19:00−10зсз229094 0.0 102314
22:00−14з229772 0.0 102110
20 апреля, вт
вт2001:00−18зюз2210081 0.0 101910
04:00−19ю11100100 0.0 101610
07:00−18юв0010080 0.0 10139
10:00−14всв1193100 0.1 1013118
13:00−9св2287100 0.2 1012305
16:00−5св2381100 0.1 1012492
19:00−9в339212 0.1 101214
22:00−16в2210098 0.0 10139